Regional Weather Roundup
Issued by NWS

Home | Current Version | Previous Version | Graphics & Text | Print | Product List | Glossary On
Versions: 1 2 3 4 5 6 7 8 9 10 11 12 13 14 15 16 17 18 19 20 21 22 23 24 25 26 27 28 29 30 31 32 33 34 35 36 37 38 39 40 41 42 43 44 45 46 47 48 49 50
000
ASUS43 KMPX 261210
RWRMN
WEATHER ROUNDUP FOR MINNESOTA
NATIONAL WEATHER SERVICE TWIN CITIES/CHANHASSEN MN
600 AM CST FRI DEC 26 2014


NOTE: "FAIR" INDICATES FEW OR NO CLOUDS BELOW 12,000 FEET WITH NO
SIGNIFICANT WEATHER AND/OR OBSTRUCTIONS TO VISIBILITY. N/A MEANS
CURRENT SKY AND/OR WEATHER CONDITIONS ARE NOT AVAILABLE.

MNZ060>063-068>070-261300-
   Twin Cities Metro

CITY           SKY/WX    TMP DP  RH WIND       PRES   REMARKS
TWIN CITIES    CLOUDY    32  29  88 N10       29.91R WCI  24
6HR MIN TEMP:  31; 6HR MAX TEMP:  32;

ST PAUL        CLOUDY    32  30  92 N10       29.92R WCI  24
CRYSTAL        CLOUDY    33  30  88 N10       29.91R WCI  25
BLAINE         CLOUDY    34  34 100 N10       29.91S FOG     WCI  26
LAKEVILLE      CLOUDY    30  30 100 N8        29.89R WCI  23
EDEN PRAIRIE   CLOUDY    33  29  85 N12       29.89R WCI  24
6HR MIN TEMP:  32; 6HR MAX TEMP:  33;

SOUTH ST PAUL  CLOUDY    33  31  92 N7        29.90S WCI  27
LAKE ELMO      CLOUDY    32  32 100 N6        29.91R WCI  26
$$
MNZ001>005-007-008-013>017-022>024-027-028-261300-
   Northwest Minnesota

CITY           SKY/WX    TMP DP  RH WIND       PRES   REMARKS
BEMIDJI        CLOUDY    24  19  81 N7        30.01R WCI  16
HALLOCK        CLOUDY    21  19  93 N6        30.10R WCI  14
ROSEAU         MOCLDY    19  16  86 N3        30.06R
WARROAD        CLOUDY    19  16  86 NW7       30.06R WCI  10
THIEF RVR FALL CLOUDY    23  19  86 NW10      30.07R WCI  12
CROOKSTON      MOCLDY    23  21  93 N7        30.10R WCI  15
FOSSTON        CLOUDY    21  19  93 N7        30.05R WCI  13
DETROIT LAKES  CLOUDY    27  23  86 N6        30.03R WCI  20
MOORHEAD       CLOUDY    25  23  93 N17       30.07S WCI  11
PARK RAPIDS    CLOUDY    25  19  78 N9        29.99R WCI  15
MAHNOMEN       CLOUDY    23  20  90 N9        30.04R WCI  13
$$
MNZ006-009>011-018-025>026-261300-
   North Central Minnesota

CITY           SKY/WX    TMP DP  RH WIND       PRES   REMARKS
BAUDETTE       CLOUDY    21  17  84 NW8       30.03R WCI  11
FLAG ISLAND    CLOUDY    21  18  86 NW12      30.04R WCI   9
INTL FALLS     CLOUDY    24  21  88 NW8       30.00R WCI  15
6HR MIN TEMP:  24; 6HR MAX TEMP:  27;

WASKISH        CLOUDY    23  19  86 CALM      30.03R
BIG FORK       FLURRIES  25  23  93 NW6       30.00R WCI  18
LONGVILLE      CLOUDY    25  23  93 N5        29.99R WCI  19
GRAND RAPIDS   CLOUDY    25  21  86 N8        29.97R WCI  16
CRANE LAKE     CLOUDY    27  25  93 NW5       30.00R WCI  21
ORR            CLOUDY    25  21  86 NW5       29.95S WCI  19
COOK           CLOUDY    25  23  93 CALM      29.97S
WALKER         CLOUDY    24  22  93 N3        30.00R
$$
MNZ012-019>021-037-261300-
   Northeast Minnesota

CITY           SKY/WX    TMP DP  RH WIND       PRES   REMARKS
DULUTH         FLURRIES  28  21  75 N9        29.93S WCI  19
6HR MIN TEMP:  28; 6HR MAX TEMP:  30; 6HR PCP: TRACE;

ELY            CLOUDY    25  21  86 CALM      29.96R
HIBBING        CLOUDY    27  21  78 N7        29.97R WCI  19
EVELETH        CLOUDY    27  23  86 CALM      29.98R
DULUTH HARBOR  CLOUDY    32  25  74 N10       29.99R WCI  24
TWO HARBORS    CLOUDY    30  25  80 N6        29.94R WCI  24
SILVER BAY     CLOUDY    28  23  80 NW5       29.95R WCI  23
GRAND MARAIS     N/A     32  24  72 VRB5      29.98R WCI  27
G MARAIS ARPRT CLOUDY    25  19  80 NW3       29.93R
$$
MNZ029>031-032-039>041-046>048-054>057-064-261300-
   West Central Minnesota

CITY           SKY/WX    TMP DP  RH WIND       PRES   REMARKS
FERGUS FALLS   CLOUDY    25  19  80 N9G16     30.06R WCI  15
WHEATON        CLOUDY    21  21 100 N13       30.07R FOG     WCI   9
MORRIS         LGT SNOW  27  25  93 N10       30.00R WCI  17
ALEXANDRIA     LGT SNOW  26  23  88 N10       29.99R FOG     WCI  16
ELBOW LAKE     CLOUDY    26  23  90 N9        30.01R WCI  16
WADENA         CLOUDY    25  21  86 N8        30.00R WCI  16
GLENWOOD       FLURRIES  27  25  93 N10       29.98R WCI  17
APPLETON       LGT SNOW  28  25  86 N13       30.01R WCI  18
BENSON         MIX PCPN  27  25  93 N7        30.00R WCI  19
ORTONVILLE     LGT SNOW  25  21  86 N17       30.02R WCI  11
MADISON          N/A     30  27  86 N12       30.01R WCI  21
WILLMAR        CLOUDY    28  27  93 N9        29.98R WCI  20
$$
MNZ033>034-036-042>043-049>051-058-059-261300-
   Central Minnesota

CITY           SKY/WX    TMP DP  RH WIND       PRES   REMARKS
ST CLOUD       CLOUDY    32  25  75 N9        29.96R WCI  24
6HR MIN TEMP:  32; 6HR MAX TEMP:  32; 6HR PCP: TRACE;

SAUK CENTRE    FLURRIES  26  24  91 N7        29.97R WCI  18
PAYNESVILLE    CLOUDY    25  24  94 NW8       29.97R WCI  17
AITKIN         CLOUDY    28  23  80 N12       29.96R WCI  18
PINE RIVER     CLOUDY    25  23  93 N7        30.02R WCI  17
BRAINERD       CLOUDY    27  22  81 N10       29.99R WCI  17
STAPLES        CLOUDY    25  21  86 N7        29.99R WCI  17
LONG PRAIRIE   CLOUDY    27  23  86 NW8       29.98R WCI  18
LITTLE FALLS   MOCLDY    28  23  80 N5        29.98R WCI  23
LITCHFIELD     CLOUDY    30  28  93 N8        29.96R WCI  23
BUFFALO        CLOUDY    30  28  91 N7        29.94R WCI  23
MAPLE LAKE     CLOUDY    31  29  94 N9        29.95R WCI  23
$$
MNZ037-044-045-052-053-261300-
   East Central Minnesota

CITY           SKY/WX    TMP DP  RH WIND       PRES   REMARKS
PRINCETON      CLOUDY    30  28  93 N7        29.95R WCI  23
MORA           CLOUDY    28  25  86 N3        29.97R
CAMBRIDGE      CLOUDY    32  25  74 N3        29.93R
RUSH CITY      CLOUDY    30  28  92 N6        29.94R WCI  24
MOOSE LAKE     FLURRIES  28  27  93 N3        29.95R
HINCKLEY       CLOUDY    30  28  93 CALM      29.95R
CLOQUET        CLOUDY    28  23  80 N5        29.95R WCI  23
MCGREGOR       CLOUDY    28  25  86 N8        29.98R WCI  20
$$
MNZ071>073-080-081-089-090-097-098-261300-
   Southwest Minnesota

CITY           SKY/WX    TMP DP  RH WIND       PRES   REMARKS
MONTEVIDEO     CLOUDY    27  27 100 N14G20    30.00R WCI  15
GRANITE FALLS  CLOUDY    27  26  93 NW12      30.00R WCI  17
CANBY          CLOUDY    27  25  93 N13       30.01R WCI  16
MARSHALL       CLOUDY    27  21  80 N17       29.97R WCI  14
REDWOOD FALLS  CLOUDY    31  28  89 N8        29.95R WCI  23
OLIVIA         CLOUDY    28  28 100 N10       29.95S WCI  19
PIPESTONE      CLOUDY    27  25  93 N13G18    29.94R WCI  16
WINDOM         CLOUDY    30  28  93 N18       29.91R WCI  18
WORTHINGTON    CLOUDY    27 -18  13 N17       29.91R WCI  14
JACKSON        CLOUDY    32  30  93 N12G20    29.89R FOG     WCI  23
TRACY          CLOUDY    28  27  96 N14G20    29.95R WCI  17
SLAYTON        CLOUDY    26  25  98 N17       29.93R FOG     WCI  13
$$
MNZ065>067-074>077-082>085-091>093-261300-
   South Central Minnesota

CITY           SKY/WX    TMP DP  RH WIND       PRES   REMARKS
MANKATO        CLOUDY    34  28  80 N12       29.89R WCI  25
NEW ULM        CLOUDY    30  30 100 N7        29.92R FOG     WCI  23
ST JAMES       CLOUDY    34  30  86 NW13      29.91S FOG     WCI  25
FAIRMONT       CLOUDY    32  28  86 N15       29.88R WCI  22
GLENCOE        CLOUDY    32  31  96 N12G17    29.92R WCI  23
FARIBAULT      CLOUDY    32  30  93 N6        29.88R FOG     WCI  26
OWATONNA       CLOUDY    32  30  93 N6        29.87R FOG     WCI  26
WASECA         CLOUDY    32  30  93 N9        29.88R FOG     WCI  24
ALBERT LEA     CLEAR     27  27 100 N5        29.85R FOG     WCI  21
$$
MNZ078>079-086>088-094>096-261300-
   Southeast Minnesota

CITY           SKY/WX    TMP DP  RH WIND       PRES   REMARKS
ROCHESTER      CLEAR     27  26  96 E5        29.84R FOG     WCI  22
6HR MIN TEMP:  26; 6HR MAX TEMP:  30;

RED WING       CLOUDY    34  30  86 CALM      29.89R
STANTON        CLOUDY    33  31  92 N8        29.88R FOG     WCI  26
DODGE CENTER   CLOUDY    30  30 100 N6        29.84R WCI  24
WINONA         CLEAR     28  27  93 CALM      29.89R FOG
AUSTIN         CLEAR     27  25  93 CALM      29.83S
PRESTON        CLEAR     30  28  92 E3        29.84S
$$
ABBREVIATIONS USED IN REMARKS
   TC - TEMPERATURES IN CELSIUS
  WCI - WIND CHILL INDEX
   HX - HEAT INDEX
  VSB - VISIBILITY
$$


USA.gov is the U.S. government's official web portal to all federal, state and local government web resources and services.